Location: 22
(39.7117°N, 89.5929°W)
Time: 08:09:19
(UTC-06:00)

Tiros 1 - All Passes

Search period start: 27 January 2023 00:00
Search period end: 06 February 2023 00:00
Orbit: 628 x 662 km, 48.4° (Epoch: 26 January)

Date Brightness Start Highest point End Pass type
(mag) Time Alt. Az. Time Alt. Az. Time Alt. Az.
27 Jan - 01:33:17 10° S 01:36:54 23° SE 01:40:32 10° E night (unlit)
27 Jan - 03:14:02 10° WSW 03:18:40 75° NNW 03:23:22 10° ENE visible
27 Jan - 04:57:11 10° WNW 05:01:22 31° N 05:05:34 10° NE visible
27 Jan - 06:40:14 10° NW 06:44:27 31° N 06:48:42 10° ENE visible
27 Jan - 08:22:23 10° WNW 08:27:08 76° NNE 08:31:55 10° ESE daylight
27 Jan - 10:05:12 10° W 10:08:56 23° SW 10:12:42 10° S daylight
28 Jan - 01:57:34 10° SW 02:02:02 50° SE 02:06:33 10° ENE night (unlit)
28 Jan - 03:39:48 10° W 03:44:15 44° NNW 03:48:46 10° NE visible
28 Jan - 05:23:11 10° WNW 05:27:13 28° N 05:31:18 10° ENE visible
28 Jan - 07:05:43 10° NW 07:10:13 42° NNE 07:14:45 10° E daylight
28 Jan - 08:47:52 10° WNW 08:52:31 55° SW 08:57:10 10° SE daylight
29 Jan - 00:42:16 10° S 00:45:40 20° SE 00:49:04 10° E night (unlit)
29 Jan - 02:22:44 10° WSW 02:27:22 81° NNW 02:32:04 10° ENE night (unlit)
29 Jan - 04:05:50 10° WNW 04:10:00 32° NNW 04:14:14 10° NE visible
29 Jan - 05:48:56 10° NW 05:53:06 30° N 05:57:17 10° ENE visible
29 Jan - 07:31:05 10° NW 07:35:49 70° NNE 07:40:34 10° ESE daylight
29 Jan - 09:13:47 10° W 09:17:41 26° SW 09:21:36 10° S daylight
30 Jan - 01:06:22 10° SSW 01:10:45 45° SE 01:15:12 10° ENE night (unlit)
30 Jan - 02:48:27 10° W 02:52:55 46° NNW 02:57:27 10° NE visible
30 Jan - 04:31:50 10° WNW 04:35:52 28° N 04:39:56 10° ENE visible
30 Jan - 06:14:25 10° NW 06:18:52 40° NNE 06:23:21 10° E visible
30 Jan - 07:56:33 10° WNW 08:01:13 61° SW 08:05:55 10° SE daylight
30 Jan - 09:41:28 10° WSW 09:42:39 11° SW 09:43:50 10° SW daylight
30 Jan - 23:51:16 10° S 23:54:25 18° SE 23:57:34 10° E night (unlit)
31 Jan - 01:31:26 10° WSW 01:36:04 88° NNW 01:40:45 10° ENE night (unlit)
31 Jan - 03:14:27 10° WNW 03:18:39 33° NNW 03:22:54 10° NE visible
31 Jan - 04:57:36 10° NW 05:01:44 30° N 05:05:53 10° ENE visible
31 Jan - 06:39:48 10° NW 06:44:29 65° NNE 06:49:13 10° ESE visible
31 Jan - 08:22:22 10° WNW 08:26:24 28° SW 08:30:28 10° SSE daylight
01 Feb - 00:15:10 10° SSW 00:19:29 40° SE 00:23:50 10° ENE night (unlit)
01 Feb - 01:57:05 10° W 02:01:35 49° NNW 02:06:08 10° NE night (unlit)
01 Feb - 03:40:28 10° WNW 03:44:29 28° N 03:48:33 10° ENE visible
01 Feb - 05:23:07 10° NW 05:27:30 38° NNE 05:31:56 10° E visible
01 Feb - 07:05:14 10° WNW 07:09:54 67° SW 07:14:37 10° SE daylight
01 Feb - 08:49:29 10° WSW 08:51:24 12° SW 08:53:19 10° SSW daylight
01 Feb - 23:00:19 10° S 23:03:09 16° SE 23:06:01 10° E night (unlit)
02 Feb - 00:40:09 10° SW 00:44:45 85° SSE 00:49:25 10° ENE night (unlit)
02 Feb - 02:23:04 10° W 02:27:17 34° NNW 02:31:32 10° NE night (unlit)
02 Feb - 04:06:16 10° NW 04:10:21 29° N 04:14:28 10° ENE visible
02 Feb - 05:48:30 10° NW 05:53:09 60° NNE 05:57:50 10° ESE visible
02 Feb - 07:30:58 10° WNW 07:35:07 31° SW 07:39:18 10° SSE daylight
02 Feb - 23:23:59 10° SSW 23:28:11 36° SE 23:32:26 10° ENE night (unlit)
03 Feb - 01:05:44 10° WSW 01:10:15 53° NNW 01:14:49 10° NE night (unlit)
03 Feb - 02:49:05 10° WNW 02:53:06 28° N 02:57:10 10° NE visible
03 Feb - 04:31:49 10° NW 04:36:08 36° NNE 04:40:31 10° E visible
03 Feb - 06:13:54 10° WNW 06:18:35 73° SW 06:23:19 10° SE visible
03 Feb - 07:57:44 10° W 08:00:08 14° SW 08:02:32 10° SSW daylight
03 Feb - 22:09:25 10° SSE 22:11:54 14° SE 22:14:23 10° E night (unlit)
03 Feb - 23:48:51 10° SW 23:53:26 78° SSE 23:58:05 10° ENE night (unlit)
04 Feb - 01:31:40 10° W 01:35:55 35° NNW 01:40:12 10° NE night (unlit)
04 Feb - 03:14:55 10° NW 03:18:57 28° N 03:23:02 10° ENE visible
04 Feb - 04:57:11 10° NW 05:01:48 56° NNE 05:06:26 10° ESE visible
04 Feb - 06:39:34 10° WNW 06:43:49 34° SW 06:48:06 10° SSE daylight
04 Feb - 22:32:48 10° SSW 22:36:54 33° SE 22:41:03 10° ENE night (unlit)
05 Feb - 00:14:22 10° WSW 00:18:54 57° NNW 00:23:28 10° NE night (unlit)
05 Feb - 01:57:41 10° WNW 02:01:43 28° N 02:05:46 10° NE night (unlit)
05 Feb - 03:40:29 10° NW 03:44:46 35° NNE 03:49:05 10° E visible
05 Feb - 05:22:34 10° WNW 05:27:15 80° SW 05:31:59 10° SE visible
05 Feb - 07:06:06 10° W 07:08:51 16° SW 07:11:37 10° SSW daylight
05 Feb - 21:18:36 10° SSE 21:20:38 13° SE 21:22:40 10° ESE night (unlit)
05 Feb - 22:57:32 10° SW 23:02:07 71° SE 23:06:44 10° ENE night (unlit)
